When you browse on this site, cookies collect data to enhance your experience and personalize the content and advertising you see.
Visit our Privacy Policy to learn more. By continuing to use the site, you agree to this use of cookies and data.
  • In Romania
  • List of Countries
  • For 7 days
  • Water Temperature
  • Weather Map
  • Weather Widgets
  • user-avatar
    Login

    Hourly Weather Bururi

    Today, 18 January, Saturday

    Time Temperature Precipitation Wind Pressure Humidity
    00:00 +18°C° 1 mm 1 mps 616 mmHg 90%
    01:00 +18°C° 1 mm 1 mps 616 mmHg 91%
    02:00 +17°C° 0 mm 2 mps 615 mmHg 93%
    03:00 +18°C° 1.6 mm 1 mps 615 mmHg 93%
    04:00 +18°C° 1.6 mm 1 mps 615 mmHg 93%
    05:00 +16°C° 1.6 mm 1 mps 615 mmHg 93%
    06:00 +16°C° 1.1 mm 1 mps 616 mmHg 93%
    07:00 +16°C° 1.1 mm 1 mps 616 mmHg 94%
    08:00 +18°C° 0 mm 1 mps 617 mmHg 93%
    09:00 +18°C° 0.5 mm 1 mps 617 mmHg 92%
    10:00 +19°C° 0.5 mm 1 mps 617 mmHg 91%
    11:00 +19°C° 0.5 mm 1 mps 617 mmHg 90%
    12:00 +19°C° 0.2 mm 1 mps 617 mmHg 89%
    13:00 +19°C° 0.2 mm 2 mps 617 mmHg 88%
    14:00 +19°C° 0.2 mm 2 mps 616 mmHg 87%
    15:00 +19°C° 0.1 mm 2 mps 616 mmHg 88%
    16:00 +19°C° 0.1 mm 2 mps 616 mmHg 89%
    17:00 +19°C° 0.1 mm 1 mps 615 mmHg 89%
    18:00 +19°C° 0 mm 1 mps 616 mmHg 90%
    19:00 +18°C° 0 mm 1 mps 616 mmHg 91%
    20:00 +16°C° 0 mm 0 mps 616 mmHg 92%
    21:00 +18°C° 0.2 mm 1 mps 616 mmHg 92%
    22:00 +18°C° 0.2 mm 1 mps 617 mmHg 93%
    23:00 +18°C° 0.2 mm 1 mps 617 mmHg 93%

    Tomorrow, 19 January, Sunday

    Time Temperature Precipitation Wind Pressure Humidity
    00:00 +18°C° 0.5 mm 1 mps 617 mmHg 94%
    01:00 +18°C° 0.5 mm 1 mps 617 mmHg 94%
    02:00 +16°C° 0.5 mm 1 mps 616 mmHg 95%
    03:00 +16°C° 0.5 mm 1 mps 616 mmHg 95%
    04:00 +16°C° 0.5 mm 0 mps 616 mmHg 96%
    05:00 +16°C° 0.5 mm 0 mps 616 mmHg 96%
    06:00 +16°C° 0.8 mm 0 mps 617 mmHg 95%
    07:00 +16°C° 0.8 mm 0 mps 617 mmHg 94%
    08:00 +16°C° 0.8 mm 0 mps 618 mmHg 94%
    09:00 +19°C° 0.8 mm 1 mps 618 mmHg 93%
    10:00 +19°C° 0.8 mm 1 mps 618 mmHg 93%
    11:00 +19°C° 0.8 mm 1 mps 618 mmHg 92%
    12:00 +19°C° 0.3 mm 1 mps 617 mmHg 91%
    13:00 +19°C° 0.3 mm 1 mps 616 mmHg 90%
    14:00 +19°C° 0.3 mm 1 mps 616 mmHg 90%
    15:00 +20°C° 0.1 mm 1 mps 616 mmHg 88%
    16:00 +20°C° 0.1 mm 1 mps 616 mmHg 86%
    17:00 +20°C° 0.1 mm 1 mps 615 mmHg 84%
    18:00 +19°C° 0 mm 1 mps 615 mmHg 85%
    19:00 +18°C° 0 mm 1 mps 615 mmHg 86%
    20:00 +16°C° 0 mm 1 mps 616 mmHg 87%
    21:00 +16°C° 0 mm 1 mps 616 mmHg 86%
    22:00 +16°C° 0 mm 1 mps 616 mmHg 86%
    23:00 +16°C° 0 mm 1 mps 616 mmHg 85%

    Day after tomorrow, 20 January, Monday

    Time Temperature Precipitation Wind Pressure Humidity
    00:00 +16°C° 0 mm 1 mps 616 mmHg 86%
    01:00 +16°C° 0 mm 1 mps 616 mmHg 88%
    02:00 +16°C° 0 mm 1 mps 616 mmHg 89%
    03:00 +16°C° 0 mm 1 mps 616 mmHg 88%
    04:00 +16°C° 0 mm 1 mps 616 mmHg 88%
    05:00 +16°C° 0 mm 1 mps 616 mmHg 88%
    06:00 +18°C° 0 mm 1 mps 617 mmHg 86%
    07:00 +19°C° 0 mm 1 mps 617 mmHg 84%
    08:00 +20°C° 0 mm 1 mps 618 mmHg 82%
    09:00 +21°C° 0.1 mm 1 mps 618 mmHg 76%
    10:00 +23°C° 0.1 mm 1 mps 618 mmHg 71%
    11:00 +25°C° 0.1 mm 1 mps 618 mmHg 66%
    12:00 +24°C° 0.7 mm 1 mps 618 mmHg 67%
    13:00 +24°C° 0.7 mm 1 mps 617 mmHg 69%
    14:00 +24°C° 0.7 mm 1 mps 616 mmHg 71%
    15:00 +24°C° 0.5 mm 1 mps 616 mmHg 74%
    16:00 +23°C° 0.5 mm 1 mps 615 mmHg 78%
    17:00 +21°C° 0.5 mm 0 mps 615 mmHg 81%
    18:00 +19°C° 0.1 mm 0 mps 615 mmHg 82%
    19:00 +20°C° 0.1 mm 1 mps 615 mmHg 84%
    20:00 +19°C° 0.1 mm 1 mps 615 mmHg 85%
    21:00 +19°C° 0.1 mm 1 mps 616 mmHg 85%
    22:00 +17°C° 0.1 mm 0 mps 616 mmHg 85%
    23:00 +17°C° 0.1 mm 0 mps 616 mmHg 84%

    21 January, Tuesday

    Time Temperature Precipitation Wind Pressure Humidity
    00:00 +17°C° 0.3 mm 0 mps 616 mmHg 84%
    01:00 +17°C° 0.3 mm 0 mps 616 mmHg 85%
    02:00 +19°C° 0.3 mm 1 mps 616 mmHg 85%
    03:00 +19°C° 0.2 mm 1 mps 616 mmHg 86%
    04:00 +18°C° 0.2 mm 1 mps 616 mmHg 87%
    05:00 +18°C° 0.2 mm 1 mps 616 mmHg 88%
    06:00 +19°C° 0.3 mm 1 mps 616 mmHg 87%
    07:00 +20°C° 0.3 mm 1 mps 617 mmHg 86%
    08:00 +19°C° 0.3 mm 0 mps 618 mmHg 85%
    09:00 +22°C° 0.2 mm 1 mps 618 mmHg 80%
    10:00 +23°C° 0.2 mm 1 mps 618 mmHg 76%
    11:00 +24°C° 0.2 mm 1 mps 618 mmHg 72%
    12:00 +24°C° 0.3 mm 1 mps 617 mmHg 71%
    13:00 +24°C° 0.3 mm 1 mps 617 mmHg 70%
    14:00 +24°C° 0.3 mm 1 mps 616 mmHg 69%
    15:00 +24°C° 0.4 mm 1 mps 616 mmHg 72%
    16:00 +23°C° 0.4 mm 1 mps 615 mmHg 75%
    17:00 +23°C° 0.4 mm 1 mps 615 mmHg 78%
    18:00 +22°C° 0.1 mm 1 mps 615 mmHg 80%
    19:00 +19°C° 0.1 mm 0 mps 615 mmHg 83%
    20:00 +17°C° 0.1 mm 0 mps 616 mmHg 85%
    21:00 +17°C° 0 mm 0 mps 616 mmHg 85%
    22:00 +19°C° 0 mm 1 mps 616 mmHg 86%
    23:00 +18°C° 0 mm 1 mps 616 mmHg 86%

    22 January, Wednesday

    Time Temperature Precipitation Wind Pressure Humidity
    00:00 +18°C° 0.1 mm 1 mps 616 mmHg 86%
    01:00 +18°C° 0.1 mm 1 mps 616 mmHg 85%
    02:00 +18°C° 0.1 mm 1 mps 616 mmHg 85%
    03:00 +18°C° 0.1 mm 1 mps 615 mmHg 86%
    04:00 +18°C° 0.1 mm 1 mps 615 mmHg 86%
    05:00 +18°C° 0.1 mm 1 mps 615 mmHg 87%
    06:00 +19°C° 0.2 mm 1 mps 616 mmHg 85%
    07:00 +20°C° 0.2 mm 1 mps 617 mmHg 84%
    08:00 +21°C° 0.2 mm 1 mps 617 mmHg 82%
    09:00 +22°C° 0.5 mm 1 mps 617 mmHg 79%
    10:00 +23°C° 0.5 mm 1 mps 617 mmHg 75%
    11:00 +24°C° 0.5 mm 1 mps 617 mmHg 71%
    12:00 +24°C° 0.6 mm 1 mps 617 mmHg 70%
    13:00 +24°C° 0.6 mm 1 mps 616 mmHg 68%
    14:00 +25°C° 0.6 mm 1 mps 615 mmHg 66%
    15:00 +24°C° 0.3 mm 1 mps 615 mmHg 70%
    16:00 +23°C° 0.3 mm 1 mps 615 mmHg 73%
    17:00 +23°C° 0.3 mm 1 mps 614 mmHg 77%
    18:00 +22°C° 0.1 mm 1 mps 614 mmHg 77%
    19:00 +20°C° 0.1 mm 1 mps 615 mmHg 78%
    20:00 +19°C° 0.1 mm 1 mps 615 mmHg 78%
    21:00 +19°C° 0 mm 1 mps 615 mmHg 78%
    22:00 +19°C° 0 mm 1 mps 616 mmHg 78%
    23:00 +17°C° 0 mm 0 mps 616 mmHg 78%

    23 January, Thursday

    Time Temperature Precipitation Wind Pressure Humidity
    00:00 +19°C° 0.1 mm 1 mps 616 mmHg 80%
    01:00 +19°C° 0.1 mm 1 mps 616 mmHg 82%
    02:00 +18°C° 0.1 mm 1 mps 615 mmHg 83%
    03:00 +18°C° 0 mm 1 mps 615 mmHg 83%
    04:00 +18°C° 0 mm 1 mps 615 mmHg 84%
    05:00 +16°C° 0 mm 1 mps 615 mmHg 84%
    06:00 +18°C° 0 mm 1 mps 616 mmHg 83%
    07:00 +17°C° 0 mm 0 mps 616 mmHg 82%
    08:00 +18°C° 0 mm 0 mps 617 mmHg 81%
    09:00 +22°C° 0.1 mm 1 mps 617 mmHg 74%
    10:00 +23°C° 0.1 mm 1 mps 617 mmHg 67%
    11:00 +25°C° 0.1 mm 1 mps 618 mmHg 61%
    12:00 +25°C° 0.3 mm 1 mps 617 mmHg 62%
    13:00 +25°C° 0.3 mm 1 mps 616 mmHg 62%
    14:00 +25°C° 0.3 mm 1 mps 615 mmHg 63%
    15:00 +24°C° 0.3 mm 1 mps 615 mmHg 67%
    16:00 +24°C° 0.3 mm 1 mps 615 mmHg 71%
    17:00 +23°C° 0.3 mm 1 mps 614 mmHg 75%
    18:00 +22°C° 0.2 mm 1 mps 614 mmHg 78%
    19:00 +21°C° 0.2 mm 1 mps 615 mmHg 80%
    20:00 +19°C° 0.2 mm 1 mps 615 mmHg 83%
    21:00 +19°C° 0.2 mm 1 mps 615 mmHg 82%
    22:00 +20°C° 0.2 mm 1 mps 616 mmHg 82%
    23:00 +18°C° 0.2 mm 0 mps 616 mmHg 81%
    Show more